Weather History for KBFM - August, 2013

Change the Weather History Date:

Friday, August 23, 2013

  Actual Average (KMOB) Record (KMOB)
Temperature  
Mean Temperature 78 °F 82 °F  
Max Temperature 82 °F 91 °F 99 °F (1924)
Min Temperature 75 °F 73 °F 63 °F (2009)
Cooling Degree Days 14 17  
Month to date cooling degree days 391  
Year to date cooling degree days 1802  
Since 1 June cooling degree days 1357  
Growing Degree Days 28 (Base 50)    
Moisture  
Dew Point 73 °F    
Average Humidity 84    
Maximum Humidity 94    
Minimum Humidity 74    
Precipitation  
Precipitation 0.00 in 0.21 in 1.92 in (1909)
Month to date precipitation 5.46  
Year to date precipitation 45.66  
Sea Level Pressure  
Sea Level Pressure 30.02 in    
Wind  
Wind Speed 8 mph (East)    
Max Wind Speed 12 mph    
Max Gust Speed -    
Visibility 10 miles    
Events      
T = Trace of Precipitation, MM = Missing Value Source: NWS Daily Summary

Daily Weather History Graph

Daily Weather History Graph

Search for Another Location

Airport or City:

Trip Planner

Search our weather history database for the weather conditions in past years. The results will help you decide how hot, cold, wet, or windy it might be!

Date:

Astronomy

Aug. 23, 2013 Rise Set
Actual Time 6:23 AM CDT 7:25 PM CDT
Civil Twilight 5:58 AM CDT 7:50 PM CDT
Nautical Twilight 5:29 AM CDT 8:19 PM CDT
Astronomical Twilight 4:58 AM CDT 8:49 PM CDT
Moon 9:02 PM CDT (8/23) 9:02 AM CDT (8/23)
Length of Visible Light 13h 51m
Length of Day
13h 01m
Waning Gibbous, 91% of the Moon is Illuminated
Aug 23
Waning Gibbous
Aug 28
Last Quarter
Sep 5
New
Sep 12
First Quarter
Sep 19
Full

Hourly Weather History & Observations

Time (CDT) Temp. Heat Index Dew Point Humidity Pressure Visibility Wind Dir Wind Speed Gust Speed Precip Events Conditions
12:53 AM 79.0 °F - 75.0 °F 88% 30.04 in 10.0 mi NE 5.8 mph - N/A   Clear
1:53 AM 78.1 °F - 75.0 °F 90% 30.02 in 10.0 mi East 6.9 mph - N/A   Clear
2:53 AM 77.0 °F - 73.0 °F 88% 30.00 in 10.0 mi ESE 11.5 mph - N/A   Mostly Cloudy
3:29 AM 77.0 °F - 71.6 °F 83% 29.99 in 10.0 mi ESE 8.1 mph - N/A   Partly Cloudy
3:53 AM 78.1 °F - 73.0 °F 84% 30.00 in 10.0 mi ESE 10.4 mph - N/A   Clear
4:53 AM 77.0 °F - 73.9 °F 90% 30.00 in 10.0 mi NE 6.9 mph - N/A   Clear
5:53 AM 75.9 °F - 73.9 °F 94% 30.00 in 10.0 mi NE 6.9 mph - N/A   Clear
6:46 AM 75.2 °F - 73.4 °F 94% 30.01 in 10.0 mi NE 8.1 mph - N/A   Scattered Clouds
6:53 AM 75.9 °F - 73.9 °F 94% 30.01 in 10.0 mi NNE 8.1 mph - N/A   Scattered Clouds
7:53 AM 77.0 °F - 73.0 °F 88% 30.02 in 10.0 mi NE 8.1 mph - N/A   Scattered Clouds
8:53 AM 78.1 °F - 73.9 °F 87% 30.05 in 10.0 mi ENE 4.6 mph - N/A   Mostly Cloudy
9:00 AM 78.8 °F - 73.4 °F 83% 30.05 in 10.0 mi East 8.1 mph - N/A   Mostly Cloudy
9:53 AM 79.0 °F - 73.9 °F 84% 30.06 in 10.0 mi East 6.9 mph - N/A   Mostly Cloudy
10:53 AM 78.1 °F - 73.9 °F 87% 30.05 in 10.0 mi ENE 8.1 mph - 0.00 in   Mostly Cloudy
11:53 AM 79.0 °F - 73.0 °F 82% 30.05 in 10.0 mi East 11.5 mph - N/A   Mostly Cloudy
12:53 PM 79.0 °F - 72.0 °F 79% 30.03 in 10.0 mi East 8.1 mph - N/A   Scattered Clouds
1:53 PM 80.1 °F 83.8 °F 72.0 °F 76% 30.02 in 10.0 mi ENE 8.1 mph - N/A   Clear
2:53 PM 82.0 °F 87.4 °F 73.0 °F 74% 30.02 in 10.0 mi East 4.6 mph - N/A   Partly Cloudy
3:53 PM 82.9 °F 89.4 °F 73.9 °F 74% 30.00 in 10.0 mi East 6.9 mph - N/A   Scattered Clouds
4:53 PM 82.9 °F 89.4 °F 73.9 °F 74% 29.99 in 10.0 mi East 9.2 mph - N/A   Scattered Clouds
5:53 PM 80.1 °F 84.2 °F 73.0 °F 79% 29.98 in 10.0 mi East 10.4 mph - N/A   Clear
6:53 PM 79.0 °F - 72.0 °F 79% 29.97 in 10.0 mi SE 4.6 mph - N/A   Clear
7:53 PM 77.0 °F - 71.1 °F 82% 29.99 in 10.0 mi SE 4.6 mph - N/A   Clear
8:53 PM 77.0 °F - 72.0 °F 84% 30.01 in 10.0 mi SE 4.6 mph - N/A   Clear
9:53 PM 77.0 °F - 72.0 °F 84% 30.03 in 10.0 mi ESE 6.9 mph - N/A   Clear
10:53 PM 78.1 °F - 73.0 °F 84% 30.05 in 10.0 mi East 9.2 mph - N/A   Clear
11:53 PM 77.0 °F - 73.0 °F 88% 30.05 in 10.0 mi ENE 6.9 mph - N/A   Clear